Regional Weather Roundup
Issued by NWS

Home | Current Version | Previous Version | Graphics & Text | Print | Product List | Glossary On
Versions: 1 2 3 4 5 6 7 8 9 10 11 12 13 14 15 16 17 18 19 20 21 22 23 24 25 26 27 28 29 30 31 32 33 34 35 36 37 38 39 40 41 42 43 44 45 46 47 48 49 50
000
ASUS43 KIND 191859
RWRIN

WEATHER ROUNDUP FOR INDIANA
NATIONAL WEATHER SERVICE INDIANAPOLIS IN
300 PM EDT SAT APR 19 2014

NOTE: "FAIR" INDICATES FEW OR NO CLOUDS BELOW 12,000 FEET WITH NO
SIGNIFICANT WEATHER AND/OR OBSTRUCTIONS TO VISIBILITY.

* - STATION DOES NOT REPORT WEATHER SUCH AS PRECIPITATION OR FOG.

+ - STATION NOT QUALITY CONTROLLED BY THE NATIONAL WEATHER SERVICE.
    USE DATA WITH CAUTION...ESPECIALLY DEWPOINT AND RELATIVE
    HUMIDITY OBSERVATIONS.

INZ001>003-010>013-019-020-192000-
NORTHWEST INDIANA

CITY           SKY/WX    TMP DP  RH WIND       PRES   REMARKS
GARY /AIRPORT/ PTSUNNY   57  39  51 NE10      30.32F
LA PORTE +     MOSUNNY   62  34  35 E10G16    30.34S
MONTICELLO +   SUNNY     63  40  42 SE9       30.31S
RENSSELAER +   SUNNY     64  34  32 SE9G17    30.32F
VALPARAISO     MOSUNNY   63  35  35 E9G17     30.33S

$$

LMZ046-743>745-192000-
SOUTHERN LAKE MICHIGAN

STATION/POSITION TIME  TEMP WIND        PRES
                       AIR  DIR/SP/G
                 (UTC) (F)  (DEG/KT/KT) (MB)
MICHIGAN CITY    1800   58  100/  8/ 12   N/A

$$

INZ004-005-014>016-021>024-192000-
NORTH CENTRAL INDIANA

CITY           SKY/WX    TMP DP  RH WIND       PRES   REMARKS
ELKHART        SUNNY     59  32  36 SE13      30.35F
GOSHEN         SUNNY     60  36  40 E10       30.35F
SOUTH BEND     NOT AVBL

$$

INZ006>009-017-018-025>027-192000-
NORTHEAST INDIANA

CITY           SKY/WX    TMP DP  RH WIND       PRES   REMARKS
ANGOLA *+      SUNNY     55  34  44 E12       30.36F
FORT WAYNE     MOSUNNY   59  37  44 E12G22    30.37S

$$

INZ028-029-035-036-043>045-051>053-192000-
WEST CENTRAL INDIANA

CITY           SKY/WX    TMP DP  RH WIND       PRES   REMARKS
GREENCASTLE +  SUNNY     68  39  34 E13       30.28F
LAFAYETTE      SUNNY     65  39  38 E12G22    30.30F
TERRE HAUTE    SUNNY     71  37  28 E12       30.26F

$$

INZ030>032-037>040-046>048-054>057-064-065-192000-
CENTRAL INDIANA

CITY           SKY/WX    TMP DP  RH WIND       PRES   REMARKS
COLUMBUS       SUNNY     68  36  30 MISG      30.27F
INDIANAPOLIS   MOSUNNY   66  38  35 NE14      30.28F
-EAGLE CREEK   SUNNY     66  38  35 E8        30.28F
KOKOMO *+      SUNNY     63  39  42 E13G20    30.32F
MT COMFORT *+  SUNNY     66  41  39 NE13      30.29F
SHELBYVILLE    SUNNY     69  35  28 NE12      30.27F

$$

INZ033-034-041-042-049-050-058-059-192000-
EAST CENTRAL INDIANA

CITY           SKY/WX    TMP DP  RH WIND       PRES   REMARKS
MUNCIE         SUNNY     63  39  41 E10       30.32F

$$

INZ060-061-067>069-081>083-085>088-192000-
SOUTHWEST INDIANA

CITY           SKY/WX    TMP DP  RH WIND       PRES   REMARKS
EVANSVILLE     SUNNY     74  34  23 NE6       30.22F
HUNTINGBURG *+ SUNNY     72  37  28 E9G22     30.22F

$$

INZ062-063-066-070>080-084-089>092-192000-
SOUTH CENTRAL AND SOUTHEAST INDIANA

CITY           SKY/WX    TMP DP  RH WIND       PRES   REMARKS
BLOOMINGTON    SUNNY     71  32  23 NE9G22    30.24F

$$




USA.gov is the U.S. government's official web portal to all federal, state and local government web resources and services.